Columbia, MO

5:29 PM CDT on September 24, 2017 (GMT -0500)
Columbia Regional

Weather History for KCOU - July, 2013

Change the Weather History Date:

Sunday, July 7, 2013

  Actual Average Record
Temperature  
Mean Temperature 79 °F 77 °F  
Max Temperature 90 °F 87 °F 106 °F (2012)
Min Temperature 67 °F 67 °F 56 °F (1924)
Degree Days  
Heating Degree Days 0 0  
Month to date heating degree days 0 0  
Since 1 June heating degree days 6 11  
Since 1 July heating degree days 0 0  
Cooling Degree Days 14 12  
Month to date cooling degree days 56 84  
Year to date cooling degree days 457 435  
Since 1 June cooling degree days 323 332  
Growing Degree Days 28 (Base 50)    
Moisture  
Dew Point 66 °F    
Average Humidity 67    
Maximum Humidity 87    
Minimum Humidity 47    
Precipitation  
Precipitation 0.00 in 0.16 in 3.16 in (1993)
Month to date precipitation T 1.06  
Year to date precipitation 28.76 22.08  
Snow  
Snow 0.00 in 0.00 in 0.00 in (2015)
Month to date snowfall 0.0 0.0  
Since 1 June snowfall 0.0 0.0  
Since 1 July snowfall 0.0 0.0  
Snow Depth 0.00 in    
Sea Level Pressure  
Sea Level Pressure 29.99 in    
Wind  
Wind Speed 9 mph (South)    
Max Wind Speed 18 mph    
Max Gust Speed 23 mph    
Visibility 10 miles    
Events      
T = Trace of Precipitation, MM = Missing Value Source: NWS Daily Summary

Daily Weather History Graph

Daily Weather History Graph

Search for Another Location

Airport or City:

Trip Planner

Search our weather history database for the weather conditions in past years. The results will help you decide how hot, cold, wet, or windy it might be!

Date:

Astronomy

Jul. 07, 2013 Rise Set
Actual Time 5:50 AM CDT 8:36 PM CDT
Civil Twilight 5:19 AM CDT 9:08 PM CDT
Nautical Twilight 4:39 AM CDT 9:47 PM CDT
Astronomical Twilight 3:54 AM CDT 10:32 PM CDT
Moon 5:26 AM CDT (7/7) 8:01 PM CDT (7/7)
Length of Visible Light 15h 48m
Length of Day
14h 45m
Waning Crescent, 0% of the Moon is Illuminated
Jul 7
Waning Crescent
Jul 8
New
Jul 15
First Quarter
Jul 22
Full
Jul 29
Last Quarter

Hourly Weather History & Observations

Time (CDT) Temp. Heat Index Dew Point Humidity Pressure Visibility Wind Dir Wind Speed Gust Speed Precip Events Conditions
12:54 AM 70.0 °F - 63.0 °F 78% 29.98 in 10.0 mi SE 8.1 mph - N/A   Partly Cloudy
1:54 AM 70.0 °F - 63.0 °F 78% 29.97 in 10.0 mi ESE 8.1 mph - N/A   Clear
2:54 AM 68.0 °F - 63.0 °F 84% 29.97 in 10.0 mi SE 6.9 mph - N/A   Clear
3:54 AM 68.0 °F - 63.0 °F 84% 29.98 in 10.0 mi SSE 8.1 mph - N/A   Clear
4:54 AM 66.9 °F - 63.0 °F 87% 29.98 in 10.0 mi South 6.9 mph - N/A   Clear
5:54 AM 68.0 °F - 64.0 °F 87% 29.99 in 10.0 mi South 6.9 mph - N/A   Partly Cloudy
6:54 AM 69.1 °F - 64.9 °F 87% 30.01 in 10.0 mi South 4.6 mph - N/A   Clear
7:54 AM 73.0 °F - 64.9 °F 76% 30.02 in 10.0 mi South 8.1 mph - N/A   Clear
8:54 AM 77.0 °F - 66.9 °F 71% 30.02 in 10.0 mi South 9.2 mph - N/A   Clear
9:54 AM 82.0 °F 84.5 °F 66.9 °F 60% 30.01 in 10.0 mi SW 15.0 mph - N/A   Clear
10:54 AM 84.0 °F 87.0 °F 68.0 °F 58% 30.01 in 10.0 mi SSW 12.7 mph - N/A   Clear
11:54 AM 87.1 °F 90.6 °F 68.0 °F 53% 30.01 in 10.0 mi WSW 13.8 mph - N/A   Clear
12:54 PM 87.1 °F 90.6 °F 68.0 °F 53% 30.00 in 10.0 mi SW 15.0 mph - N/A   Clear
1:54 PM 87.1 °F 90.6 °F 68.0 °F 53% 30.00 in 10.0 mi SW 12.7 mph - N/A   Clear
2:54 PM 90.0 °F 93.6 °F 68.0 °F 48% 29.99 in 10.0 mi SW 15.0 mph - N/A   Clear
3:54 PM 88.0 °F 90.3 °F 66.0 °F 48% 29.98 in 10.0 mi SSW 12.7 mph 23.0 mph N/A   Clear
4:54 PM 89.1 °F 92.1 °F 66.9 °F 48% 29.98 in 10.0 mi SSW 11.5 mph - N/A   Clear
5:54 PM 89.1 °F 92.9 °F 68.0 °F 50% 29.96 in 10.0 mi SW 9.2 mph - N/A   Clear
6:54 PM 87.1 °F 91.3 °F 69.1 °F 55% 29.97 in 10.0 mi SSW 6.9 mph - N/A   Clear
7:54 PM 82.9 °F 87.0 °F 70.0 °F 65% 29.97 in 10.0 mi South 5.8 mph - N/A   Clear
8:54 PM 80.1 °F 82.9 °F 69.1 °F 69% 29.97 in 9.0 mi SSE 5.8 mph - N/A   Clear
9:54 PM 78.1 °F - 66.9 °F 68% 29.99 in 10.0 mi South 5.8 mph - N/A   Clear
10:54 PM 77.0 °F - 66.0 °F 69% 30.00 in 10.0 mi SSE 6.9 mph - N/A   Clear
11:54 PM 77.0 °F - 66.0 °F 69% 30.01 in 10.0 mi SSE 8.1 mph - N/A   Clear